Stündliche Wetter 1-e Tukatovo

Heute, 17 Juni, Donnerstag

Zeit Temperatur Niederschläge Wind Luftdruck Luftfeuchtigkeit
00:00 +19°C° 0 mm 3 m/S 733 mmHg 67%
01:00 +18°C° 0 mm 2 m/S 732 mmHg 67%
02:00 +18°C° 0 mm 2 m/S 732 mmHg 65%
03:00 +18°C° 0 mm 2 m/S 732 mmHg 62%
04:00 +19°C° 0 mm 1 m/S 731 mmHg 59%
05:00 +21°C° 0 mm 1 m/S 731 mmHg 59%
06:00 +22°C° 0 mm 1 m/S 731 mmHg 58%
07:00 +23°C° 0 mm 1 m/S 731 mmHg 57%
08:00 +25°C° 0 mm 2 m/S 732 mmHg 56%
09:00 +26°C° 0 mm 2 m/S 732 mmHg 54%
10:00 +27°C° 0 mm 3 m/S 732 mmHg 52%
11:00 +28°C° 0 mm 3 m/S 732 mmHg 52%
12:00 +28°C° 0 mm 4 m/S 732 mmHg 51%
13:00 +29°C° 0 mm 4 m/S 732 mmHg 51%
14:00 +28°C° 0.5 mm 5 m/S 732 mmHg 59%
15:00 +26°C° 0.5 mm 5 m/S 732 mmHg 68%
16:00 +24°C° 0.5 mm 6 m/S 732 mmHg 76%
17:00 +23°C° 0.1 mm 6 m/S 732 mmHg 79%
18:00 +21°C° 0.1 mm 6 m/S 733 mmHg 82%
19:00 +20°C° 0.1 mm 6 m/S 733 mmHg 85%
20:00 +19°C° 0 mm 6 m/S 733 mmHg 81%
21:00 +17°C° 0 mm 6 m/S 734 mmHg 77%
22:00 +16°C° 0 mm 5 m/S 734 mmHg 73%
23:00 +15°C° 0 mm 4 m/S 734 mmHg 76%

Morgen, 18 Juni, Freitag

Zeit Temperatur Niederschläge Wind Luftdruck Luftfeuchtigkeit
00:00 +13°C° 0 mm 4 m/S 734 mmHg 78%
01:00 +12°C° 0 mm 3 m/S 734 mmHg 81%
02:00 +11°C° 0 mm 3 m/S 735 mmHg 84%
03:00 +12°C° 0 mm 2 m/S 735 mmHg 87%
04:00 +10°C° 0 mm 2 m/S 735 mmHg 90%
05:00 +11°C° 0 mm 3 m/S 735 mmHg 82%
06:00 +13°C° 0 mm 4 m/S 736 mmHg 74%
07:00 +14°C° 0 mm 5 m/S 736 mmHg 66%
08:00 +16°C° 0 mm 5 m/S 736 mmHg 58%
09:00 +17°C° 0 mm 6 m/S 737 mmHg 51%
10:00 +20°C° 0 mm 6 m/S 737 mmHg 43%
11:00 +21°C° 0 mm 6 m/S 737 mmHg 41%
12:00 +21°C° 0 mm 6 m/S 737 mmHg 39%
13:00 +22°C° 0 mm 6 m/S 737 mmHg 37%
14:00 +22°C° 0 mm 7 m/S 737 mmHg 37%
15:00 +22°C° 0 mm 7 m/S 738 mmHg 37%
16:00 +22°C° 0 mm 7 m/S 738 mmHg 38%
17:00 +21°C° 0 mm 6 m/S 738 mmHg 42%
18:00 +20°C° 0 mm 6 m/S 739 mmHg 47%
19:00 +17°C° 0 mm 5 m/S 739 mmHg 52%
20:00 +15°C° 0 mm 4 m/S 739 mmHg 58%
21:00 +13°C° 0 mm 4 m/S 740 mmHg 64%
22:00 +12°C° 0 mm 3 m/S 740 mmHg 71%
23:00 +12°C° 0 mm 2 m/S 741 mmHg 75%

übermorgen, 19 Juni, Samstag

Zeit Temperatur Niederschläge Wind Luftdruck Luftfeuchtigkeit
00:00 +10°C° 0 mm 2 m/S 741 mmHg 78%
01:00 +9°C° 0 mm 2 m/S 741 mmHg 82%
02:00 +9°C° 0 mm 2 m/S 742 mmHg 83%
03:00 +9°C° 0 mm 2 m/S 742 mmHg 83%
04:00 +8°C° 0 mm 2 m/S 742 mmHg 84%
05:00 +10°C° 0 mm 2 m/S 742 mmHg 77%
06:00 +13°C° 0 mm 1 m/S 743 mmHg 69%
07:00 +15°C° 0 mm 1 m/S 743 mmHg 62%
08:00 +17°C° 0 mm 2 m/S 743 mmHg 56%
09:00 +18°C° 0 mm 3 m/S 743 mmHg 50%
10:00 +20°C° 0 mm 4 m/S 743 mmHg 43%
11:00 +21°C° 0 mm 4 m/S 742 mmHg 43%
12:00 +22°C° 0 mm 4 m/S 742 mmHg 42%
13:00 +22°C° 0 mm 5 m/S 742 mmHg 42%
14:00 +22°C° 0 mm 5 m/S 742 mmHg 44%
15:00 +23°C° 0 mm 5 m/S 741 mmHg 45%
16:00 +23°C° 0 mm 5 m/S 741 mmHg 47%
17:00 +22°C° 0 mm 4 m/S 741 mmHg 53%
18:00 +21°C° 0 mm 4 m/S 741 mmHg 58%
19:00 +20°C° 0 mm 4 m/S 741 mmHg 63%
20:00 +19°C° 0 mm 3 m/S 741 mmHg 71%
21:00 +17°C° 0 mm 2 m/S 740 mmHg 79%
22:00 +15°C° 0 mm 1 m/S 740 mmHg 87%
23:00 +15°C° 0 mm 1 m/S 740 mmHg 88%

20 Juni, Sonntag

Zeit Temperatur Niederschläge Wind Luftdruck Luftfeuchtigkeit
00:00 +14°C° 0 mm 1 m/S 740 mmHg 90%
01:00 +14°C° 0 mm 1 m/S 740 mmHg 91%
02:00 +14°C° 0 mm 1 m/S 740 mmHg 92%
03:00 +14°C° 0 mm 1 m/S 740 mmHg 92%
04:00 +13°C° 0 mm 1 m/S 739 mmHg 93%
05:00 +15°C° 0 mm 2 m/S 739 mmHg 88%
06:00 +17°C° 0 mm 2 m/S 739 mmHg 84%
07:00 +19°C° 0 mm 3 m/S 740 mmHg 79%
08:00 +21°C° 0 mm 4 m/S 739 mmHg 73%
09:00 +23°C° 0 mm 4 m/S 739 mmHg 67%
10:00 +26°C° 0 mm 5 m/S 739 mmHg 61%
11:00 +27°C° 0 mm 5 m/S 739 mmHg 57%
12:00 +28°C° 0 mm 6 m/S 738 mmHg 54%
13:00 +29°C° 0 mm 6 m/S 738 mmHg 50%
14:00 +29°C° 0 mm 6 m/S 738 mmHg 51%
15:00 +29°C° 0 mm 6 m/S 738 mmHg 52%
16:00 +28°C° 0 mm 6 m/S 738 mmHg 53%
17:00 +28°C° 0 mm 6 m/S 738 mmHg 56%
18:00 +27°C° 0 mm 5 m/S 738 mmHg 60%
19:00 +26°C° 0 mm 5 m/S 738 mmHg 63%
20:00 +23°C° 0 mm 4 m/S 738 mmHg 71%
21:00 +21°C° 0 mm 3 m/S 738 mmHg 80%
22:00 +19°C° 0 mm 2 m/S 738 mmHg 88%
23:00 +19°C° 0 mm 2 m/S 738 mmHg 90%

21 Juni, Montag

Zeit Temperatur Niederschläge Wind Luftdruck Luftfeuchtigkeit
00:00 +18°C° 0 mm 2 m/S 738 mmHg 91%
01:00 +17°C° 0 mm 2 m/S 738 mmHg 93%
02:00 +17°C° 0 mm 2 m/S 739 mmHg 93%
03:00 +16°C° 0 mm 2 m/S 739 mmHg 94%
04:00 +16°C° 0 mm 2 m/S 739 mmHg 94%
05:00 +17°C° 0 mm 2 m/S 739 mmHg 85%
06:00 +18°C° 0 mm 2 m/S 739 mmHg 75%
07:00 +20°C° 0 mm 3 m/S 740 mmHg 66%
08:00 +21°C° 0 mm 3 m/S 740 mmHg 54%
09:00 +24°C° 0 mm 3 m/S 740 mmHg 42%
10:00 +25°C° 0 mm 4 m/S 740 mmHg 30%
11:00 +26°C° 0 mm 4 m/S 740 mmHg 29%
12:00 +27°C° 0 mm 4 m/S 740 mmHg 28%
13:00 +28°C° 0 mm 4 m/S 740 mmHg 27%
14:00 +28°C° 0 mm 4 m/S 740 mmHg 29%
15:00 +28°C° 0 mm 5 m/S 739 mmHg 31%
16:00 +28°C° 0 mm 5 m/S 739 mmHg 33%
17:00 +27°C° 0 mm 4 m/S 739 mmHg 40%
18:00 +25°C° 0 mm 4 m/S 739 mmHg 48%
19:00 +24°C° 0 mm 3 m/S 739 mmHg 56%
20:00 +21°C° 0 mm 3 m/S 739 mmHg 61%
21:00 +19°C° 0 mm 3 m/S 739 mmHg 67%
22:00 +17°C° 0 mm 2 m/S 739 mmHg 72%
23:00 +17°C° 0 mm 2 m/S 739 mmHg 72%

22 Juni, Dienstag

Zeit Temperatur Niederschläge Wind Luftdruck Luftfeuchtigkeit
00:00 +16°C° 0 mm 1 m/S 739 mmHg 72%
01:00 +16°C° 0 mm 1 m/S 739 mmHg 72%
02:00 +15°C° 0 mm 1 m/S 739 mmHg 72%
03:00 +15°C° 0 mm 1 m/S 739 mmHg 72%
04:00 +14°C° 0 mm 1 m/S 740 mmHg 73%
05:00 +18°C° 0 mm 1 m/S 740 mmHg 66%
06:00 +20°C° 0 mm 1 m/S 740 mmHg 60%
07:00 +22°C° 0 mm 1 m/S 740 mmHg 53%
08:00 +24°C° 0 mm 1 m/S 740 mmHg 49%
09:00 +25°C° 0 mm 2 m/S 740 mmHg 45%
10:00 +27°C° 0 mm 2 m/S 740 mmHg 40%
11:00 +28°C° 0 mm 3 m/S 740 mmHg 40%
12:00 +29°C° 0 mm 3 m/S 739 mmHg 41%
13:00 +30°C° 0 mm 3 m/S 739 mmHg 41%
14:00 +29°C° 0 mm 3 m/S 739 mmHg 44%
15:00 +29°C° 0 mm 4 m/S 739 mmHg 48%
16:00 +28°C° 0 mm 4 m/S 738 mmHg 51%
17:00 +28°C° 0 mm 3 m/S 738 mmHg 55%
18:00 +27°C° 0 mm 3 m/S 738 mmHg 58%
19:00 +27°C° 0 mm 2 m/S 738 mmHg 61%
20:00 +25°C° 0 mm 2 m/S 738 mmHg 68%
21:00 +23°C° 0 mm 2 m/S 738 mmHg 75%
22:00 +21°C° 0 mm 1 m/S 738 mmHg 82%
23:00 +20°C° 0.1 mm 1 m/S 738 mmHg 84%
Mehr zeigen

Wir brauchen deine Erlaubnis

Meteoprog und unser Service Anbieter werden persönliche Daten aufbewahren, so wie Cookies, Geräte Bezeichnung oder ähnliche Technologien von deinem Gerät und Prozess, so wie Persönliche Daten Inhalte und Werbungen, genauso wie social Media und den Verkehr zu analysieren.

  • Aufbewahrung und/oder Zugang zu deiner Geräte Informationen.

    Cookies, Geräte Bezeichnung oder andere Informationen, können aufbewahrt oder Zugang zu deinem Gerät erhalten, für den Grund, der oben angegeben wird.

  • Personalisierte Werbung und Inhalte, Messungen, Einblick in das Publikum und Produkt Entwicklung.

    Werbungen und Inhalte können personalisiert werden, basierend auf ein Profil. Mehr Daten können besser personalisierte Werbungen und Inhalte hinzufügen. Werbung und Inhalte können gezeigt und gemessen werden. Einblicke über das Publikum, welche die Werbung gesehen haben und den Inhalt, können abgeleitet werden. So wie Daten können genutzt werden, um es zu verbessern oder die Benutzer Erfahrung zu verbessern das System und die Software.

Wenn du “Ich stimme zu” klickst, erlaubst du uns, die Cookies zu benutzen die Geräte Bezeichnung, den Web oder ähnliche Technologien zu benutzen. Deine Settings, können in deinem Gerät bei deinem Browser geändert werden.

Für den bestimmten Zweck, berechtigten Interessen beruhen darauf, mehr als auf den Inhalt. Du kannst mehr darüber in unseren Privaten und Cookie Politik lesen.